Regional Weather Roundup
Issued by NWS

Home | Current Version | Previous Version | Graphics & Text | Print | Product List | Glossary On
Versions: 1 2 3 4 5 6 7 8 9 10 11 12 13 14 15 16 17 18 19 20 21 22 23 24 25 26 27 28 29 30 31 32 33 34 35 36 37 38 39 40 41 42 43 44 45 46 47 48 49 50
882
ASUS44 KJAN 230010
RWRMS

MISSISSIPPI HOURLY WEATHER ROUNDUP
NATIONAL WEATHER SERVICE JACKSON MS
700 PM CDT TUE APR 22 2014

NOTE: "FAIR: INDICATES FEW OR NO CLOUDS BELOW 12,000 FEET WITH NO
SIGNIFICANT WEATHER AND/OR OBSTRUCTIONS TO VISIBILITY.

MSZ001>002-007>008-010>013-018>021-025>028-034>036-230100-
NORTHWEST MISSISSIPPI

CITY           SKY/WX    TMP DP  RH WIND       PRES   REMARKS
CLARKSDALE       N/A     75  48  38 NW9       29.91S
CLEVELAND      FAIR      73  56  55 N9        29.90R
GREENWOOD      CLEAR     74  58  57 N9        29.89S
6HR MIN TEMP:  73; 6HR MAX TEMP:  78;

GREENVILLE     PTCLDY    73  60  63 N7        29.89F
6HR MIN TEMP:  72; 6HR MAX TEMP:  78;

GRENADA        FAIR      72  59  64 NW13      29.89R
OLIVE BRANCH   CLEAR     70  45  40 N12       29.91S
OXFORD         FAIR      72  55  56 NW5       29.91S
TUNICA         CLEAR     70  50  49 N6        29.92R
$$

MSZ003>006-009-014>017-022>024-029>033-037>039-230100-
NORTHEAST MISSISSIPPI

CITY           SKY/WX    TMP DP  RH WIND       PRES   REMARKS
BELMONT        FAIR      72  59  63 CALM      29.87R
COLUMBUS AFB   PTCLDY    74  60  61 CALM      29.86S
6HR MIN TEMP:  71; 6HR MAX TEMP:  78;

CORINTH        FAIR      73  54  49 NW8       29.88R
GOLDN TRIANGLE PTCLDY    73  61  64 CALM      29.89S
STARKVILLE     FAIR      72  64  78 CALM      29.87S
TUPELO         CLEAR     75  56  51 N8        29.86S
6HR MIN TEMP:  71; 6HR MAX TEMP:  79;

$$

MSZ040-058-230100-
CENTRAL MISSISSIPPI

CITY           SKY/WX    TMP DP  RH WIND       PRES   REMARKS
JACKSON INTL   MOCLDY    75  61  61 NW6       29.88S
6HR MIN TEMP:  70; 6HR MAX TEMP:  79;

JACKSON HAWKNS CLEAR     75  59  57 MISG      29.89S
6HR MIN TEMP:  70; 6HR MAX TEMP:  79;

MERIDIAN KEY   CLEAR     69  63  81 CALM      29.89S
6HR MIN TEMP:  65; 6HR MAX TEMP:  71; 6HR PCP: TRACE;

MERIDIAN NAS   PTCLDY    69  63  81 CALM      29.88F
6HR MIN TEMP:  65; 6HR MAX TEMP:  71; 6HR PCP: TRACE;

RAYMOND        FAIR      73  68  83 NW3       29.89S
VICKSBURG      CLEAR     76  60  57 N6        29.89F
6HR MIN TEMP:  74; 6HR MAX TEMP:  80;

$$

MSZ059>079-230100-
SOUTH MISSISSIPPI

CITY           SKY/WX    TMP DP  RH WIND       PRES   REMARKS
BROOKHAVEN     FAIR      73  64  73 NW3       29.91F
HATTIESBURG    CLEAR     72  64  76 N3        29.89S
6HR MIN TEMP:  68; 6HR MAX TEMP:  75; 6HR PCP: TRACE;

MCCOMB         CLEAR     74  61  63 NW6       29.90S
6HR MIN TEMP:  73; 6HR MAX TEMP:  77;

NATCHEZ        PTCLDY    73  61  64 N3        29.90S
6HR MIN TEMP:  70; 6HR MAX TEMP:  77;

PINE BELT      CLEAR     72  61  68 N6        29.90S
6HR MIN TEMP:  66; 6HR MAX TEMP:  73;

$$

MSZ080>082-230100-
COASTAL MISSISSIPPI

CITY           SKY/WX    TMP DP  RH WIND       PRES   REMARKS
BAY ST LOUIS   PTCLDY    75  63  64 CALM      29.87F
BILOXI         CLOUDY    71  66  84 SW6       29.87S
6HR MIN TEMP:  70; 6HR MAX TEMP:  76; 6HR PCP:  0.06;

PASCAGOULA     MOCLDY    71  65  81 SW3       29.87F
6HR MIN TEMP:  71; 6HR MAX TEMP:  80;

GULFPORT       MOCLDY    75  65  70 SW5       29.86F
6HR MIN TEMP:  74; 6HR MAX TEMP:  79;

$$



USA.gov is the U.S. government's official web portal to all federal, state and local government web resources and services.